Location: Voyageurs National Park
(48.5020°N, 92.9292°W)
Time: 06:16:46
(UTC-05:00)

Amateur Radio Satellites - All Passes

Search period start: 24 October 2014 05:46
Search period end: 25 October 2014 05:46
Location: Voyageurs National Park, 48.5020°N, 92.9292°W

Satellite Date Start Highest point End Downlink Frequencies (MHz)
Time Altitude Azimuth
STRAND 1 24 Oct 05:50:54 05:54:57 24° 60° (ENE) 05:59:01 ?
RS-15 24 Oct 06:10:08 06:20:57 54° 36° (NE) 06:32:08 29.354 - 29.394 USB, Beacon 29.352 USB
Uosat F 24 Oct 06:36:34 06:41:22 45° 293° (WNW) 06:46:08 435.120 FM
Sapphire 24 Oct 06:40:56 06:45:36 28° 322° (NW) 06:50:17 437.095 MHz 1200 baud AX-25 AFSK
Hamsat 24 Oct 06:42:32 06:46:31 41° 98° (E) 06:50:31 145.90 MHz
JAS-2 24 Oct 06:48:31 06:56:15 74° 103° (ESE) 07:04:06 435.800 - 435.900 CW/SSB, 435.910 FM
PCSat 24 Oct 07:04:32 07:08:39 21° 328° (NNW) 07:12:47 145.825 MHz
AO-7 24 Oct 07:10:14 07:17:59 45° 302° (WNW) 07:25:44 29.400 - 29.500 MHz
STRAND 1 24 Oct 07:28:45 07:33:47 57° 259° (W) 07:38:53 ?
Saudisat 1A 24 Oct 07:41:00 07:44:17 21° 114° (ESE) 07:47:34 436.775 MHz
Hamsat 24 Oct 08:19:00 08:22:15 22° 296° (WNW) 08:25:31 145.90 MHz
RS-15 24 Oct 08:22:50 08:33:41 62° 242° (WSW) 08:45:01 29.354 - 29.394 USB, Beacon 29.352 USB
SO-67 24 Oct 08:28:00 08:31:29 89° 105° (ESE) 08:34:56 435.3500 MHz FM
Sapphire 24 Oct 08:28:51 08:30:56 12° 347° (NNW) 08:33:01 437.095 MHz 1200 baud AX-25 AFSK
JAS-2 24 Oct 08:34:13 08:40:41 32° 302° (WNW) 08:47:20 435.800 - 435.900 CW/SSB, 435.910 FM
MaSat-1 24 Oct 08:38:02 08:40:03 18° 47° (NE) 08:41:55 437.345 MHz
HO-68 24 Oct 08:46:16 08:50:44 17° 86° (E) 08:55:10 435.675 MHz FM
PCSat 24 Oct 08:52:53 08:54:16 11° 354° (N) 08:55:40 145.825 MHz
AO-7 24 Oct 09:04:42 09:08:44 15° 326° (NW) 09:12:47 29.400 - 29.500 MHz
Saudisat 1A 24 Oct 09:19:08 09:23:28 60° 313° (NW) 09:27:52 436.775 MHz
UKube-1 24 Oct 09:49:56 09:52:26 15° 90° (E) 09:54:56 145.840 MHz, 145.915 MHz
MaSat-1 24 Oct 10:13:31 10:15:41 22° 250° (WSW) 10:17:41 437.345 MHz
Sapphire 24 Oct 10:14:49 10:16:57 12° 14° (NNE) 10:19:04 437.095 MHz 1200 baud AX-25 AFSK
FUNcube-1 24 Oct 10:28:18 10:30:47 15° 89° (E) 10:33:14 145.950 - 145.970 MHz USB
Oscar 11 24 Oct 10:30:57 10:34:56 35° 97° (E) 10:38:52 145.825 FM, Beacon 2401.500 USB
HO-68 24 Oct 10:32:18 10:39:33 81° 107° (ESE) 10:46:46 435.675 MHz FM
PCSat 24 Oct 10:37:20 10:40:13 14° 21° (NNE) 10:43:07 145.825 MHz
RS-15 24 Oct 10:38:01 10:43:39 15° 265° (W) 10:49:25 29.354 - 29.394 USB, Beacon 29.352 USB
Saudisat 1A 24 Oct 11:01:05 11:03:56 17° 335° (NNW) 11:06:47 436.775 MHz
ZACube-1 24 Oct 11:18:28 11:22:38 47° 99° (E) 11:26:41 437.345 MHz
UKube-1 24 Oct 11:24:44 11:29:06 66° 288° (WNW) 11:33:25 145.840 MHz, 145.915 MHz
KITSAT 1 24 Oct 11:42:58 11:49:02 24° 104° (ESE) 11:55:06 435.175 FM
Sapphire 24 Oct 11:57:34 12:02:17 29° 39° (NE) 12:06:58 437.095 MHz 1200 baud AX-25 AFSK
FUNcube-1 24 Oct 12:03:22 12:07:37 61° 288° (WNW) 12:11:45 145.950 - 145.970 MHz USB
Oscar 11 24 Oct 12:07:22 12:11:00 27° 295° (WNW) 12:14:38 145.825 FM, Beacon 2401.500 USB
Oscar 19 24 Oct 12:09:28 12:12:27 16° 55° (NE) 12:15:26 437.125 CW, 437.150 USB
PCSat 24 Oct 12:20:05 12:25:12 40° 45° (NE) 12:30:17 145.825 MHz
HO-68 24 Oct 12:20:51 12:26:34 27° 307° (NW) 12:32:17 435.675 MHz FM
AO-27 24 Oct 12:27:55 12:29:12 11° 50° (NE) 12:30:29 436.795 MHz FM
Oscar 10/S400 24 Oct 12:31:49 12:43:02 16° 146° (SSE) 12:53:32 145.825 - 145.975 CW/USB, Beacon 145.810 USB
Oscar 16 24 Oct 12:53:04 12:57:41 34° 64° (ENE) 13:02:17 437.025 USB, Beacon 2401.1428
AO-Echo 24 Oct 12:53:33 12:56:59 19° 57° (ENE) 13:00:30 ?
ZACube-1 24 Oct 12:55:33 12:58:44 21° 298° (WNW) 13:01:52 437.345 MHz
SO-50 24 Oct 13:09:00 13:12:48 27° 116° (ESE) 13:16:41 436.795 FM
Uribyol 2 24 Oct 13:12:21 13:16:30 25° 60° (ENE) 13:20:41 436.500 FM
JAS-1B 24 Oct 13:13:56 13:19:25 44° 66° (ENE) 13:24:47 435.800 - 435.900 CW/SSB
ITAMSAT 1 24 Oct 13:18:09 13:22:23 26° 61° (ENE) 13:26:39 435.822 SSB
KITSAT 1 24 Oct 13:35:21 13:43:27 89° 305° (NW) 13:51:36 435.175 FM
Gurwin Techsat 1B 24 Oct 13:35:42 13:39:34 21° 58° (ENE) 13:43:28 435.225 FM
Sapphire 24 Oct 13:40:45 13:46:10 68° 240° (WSW) 13:51:32 437.095 MHz 1200 baud AX-25 AFSK
Oscar 19 24 Oct 13:45:55 13:51:05 88° 74° (ENE) 13:56:16 437.125 CW, 437.150 USB
ISS 24 Oct 13:46:17 13:49:17 32° 145° (SE) 13:52:18 145.800 FM
TMSAT-1 24 Oct 13:47:22 13:51:08 20° 58° (ENE) 13:54:55 436.925 FM
AO-27 24 Oct 14:02:33 14:07:38 57° 70° (ENE) 14:12:47 436.795 MHz FM
PCSat 24 Oct 14:03:34 14:08:41 43° 245° (WSW) 14:13:46 145.825 MHz
Saudisat 1A 24 Oct 14:24:03 14:26:46 16° 24° (NNE) 14:29:30 436.775 MHz
AO-7 24 Oct 14:29:58 14:36:32 28° 48° (NE) 14:43:07 29.400 - 29.500 MHz
AO-Echo 24 Oct 14:30:18 14:35:11 72° 257° (WSW) 14:40:18 ?
Oscar 16 24 Oct 14:32:11 14:36:59 38° 263° (W) 14:41:47 437.025 USB, Beacon 2401.1428
UOSAT-12 24 Oct 14:35:38 14:39:03 20° 113° (ESE) 14:42:30 437.025 FM, 437.400 FM
Uosat F 24 Oct 14:41:17 14:41:59 10° 50° (NE) 14:42:42 435.120 FM
SO-50 24 Oct 14:48:42 14:53:07 50° 316° (NW) 14:57:42 436.795 FM
Uribyol 2 24 Oct 14:50:30 14:55:38 57° 259° (W) 15:00:49 436.500 FM
ITAMSAT 1 24 Oct 14:56:29 15:01:34 54° 260° (W) 15:06:43 435.822 SSB
JAS-1B 24 Oct 15:05:15 15:10:22 30° 265° (W) 15:15:20 435.800 - 435.900 CW/SSB
Gurwin Techsat 1B 24 Oct 15:13:44 15:19:02 70° 257° (WSW) 15:24:22 435.225 FM
ISS 24 Oct 15:22:31 15:25:50 67° 344° (NNW) 15:29:11 145.800 FM
JAS-2 24 Oct 15:25:06 15:27:22 12° 41° (NE) 15:29:42 435.800 - 435.900 CW/SSB, 435.910 FM
TMSAT-1 24 Oct 15:25:13 15:30:31 74° 257° (WSW) 15:35:51 436.925 FM
Sapphire 24 Oct 15:27:12 15:28:34 11° 259° (W) 15:29:55 437.095 MHz 1200 baud AX-25 AFSK
Oscar 19 24 Oct 15:28:29 15:31:08 14° 273° (W) 15:33:47 437.125 CW, 437.150 USB
KITSAT 1 24 Oct 15:32:43 15:39:55 34° 330° (NNW) 15:47:08 435.175 FM
AO-27 24 Oct 15:43:28 15:47:31 23° 268° (W) 15:51:37 436.795 MHz FM
Saudisat 1A 24 Oct 16:02:56 16:07:18 54° 46° (NE) 16:11:38 436.775 MHz
UOSAT-12 24 Oct 16:14:06 16:18:45 67° 312° (NW) 16:23:29 437.025 FM, 437.400 FM
Uosat F 24 Oct 16:14:49 16:19:44 57° 70° (ENE) 16:24:41 435.120 FM
AO-7 24 Oct 16:20:07 16:28:24 90° 250° (WSW) 16:36:46 29.400 - 29.500 MHz
SO-50 24 Oct 16:31:53 16:34:47 16° 339° (NNW) 16:37:44 436.795 FM
Gurwin Techsat 1B 24 Oct 16:59:08 16:59:59 10° 276° (W) 17:00:50 435.225 FM
ISS 24 Oct 16:59:34 17:02:49 47° 4° (N) 17:06:04 145.800 FM
JAS-2 24 Oct 17:04:49 17:10:37 47° 64° (ENE) 17:17:12 435.800 - 435.900 CW/SSB, 435.910 FM
TMSAT-1 24 Oct 17:09:55 17:11:22 11° 276° (W) 17:12:49 436.925 FM
KITSAT 1 24 Oct 17:32:00 17:38:05 22° 359° (N) 17:44:09 435.175 FM
Hamsat 24 Oct 17:39:18 17:43:21 48° 71° (ENE) 17:47:23 145.90 MHz
Saudisat 1A 24 Oct 17:43:04 17:46:34 23° 245° (WSW) 17:50:04 436.775 MHz
OPAL 24 Oct 17:51:55 17:56:09 27° 97° (E) 18:00:21 ?
Uosat F 24 Oct 17:55:03 17:58:53 22° 268° (W) 18:02:45 435.120 FM
UOSAT-12 24 Oct 17:56:24 17:59:46 19° 334° (NNW) 18:03:10 437.025 FM, 437.400 FM
SO-50 24 Oct 18:15:43 18:17:19 12° 4° (N) 18:18:56 436.795 FM
AO-7 24 Oct 18:16:11 18:22:18 22° 271° (W) 18:28:27 29.400 - 29.500 MHz
ISS 24 Oct 18:36:20 18:39:42 82° 204° (SSW) 18:43:02 145.800 FM
JAS-2 24 Oct 18:50:23 18:55:53 36° 268° (W) 19:02:06 435.800 - 435.900 CW/SSB, 435.910 FM
SO-67 24 Oct 19:03:58 19:07:18 50° 73° (ENE) 19:10:39 435.3500 MHz FM
Hamsat 24 Oct 19:16:36 19:19:34 19° 269° (W) 19:22:32 145.90 MHz
HO-68 24 Oct 19:19:24 19:24:41 23° 50° (NE) 19:29:59 435.675 MHz FM
KITSAT 1 24 Oct 19:29:09 19:36:18 33° 29° (NNE) 19:43:25 435.175 FM
OPAL 24 Oct 19:30:30 19:35:13 44° 295° (WNW) 19:39:54 ?
STRAND 1 24 Oct 19:35:33 19:40:20 37° 97° (E) 19:45:04 ?
UOSAT-12 24 Oct 19:40:15 19:41:47 11° 358° (N) 19:43:19 437.025 FM, 437.400 FM
SO-50 24 Oct 19:56:07 19:59:42 20° 28° (NNE) 20:03:19 436.795 FM
ISS 24 Oct 20:13:39 20:16:00 18° 222° (SW) 20:18:20 145.800 FM
AO-40 24 Oct 20:21:56 23:00:51 26° 201° (SSW) 03:18:26 Beacon 2401.320
SO-67 24 Oct 20:39:06 20:40:35 12° 271° (W) 20:42:04 435.3500 MHz FM
RS-15 24 Oct 20:45:52 20:50:57 15° 94° (E) 20:56:01 29.354 - 29.394 USB, Beacon 29.352 USB
UKube-1 24 Oct 20:48:44 20:52:05 22° 62° (ENE) 20:55:28 145.840 MHz, 145.915 MHz
HO-68 24 Oct 21:04:19 21:11:30 87° 71° (ENE) 21:18:44 435.675 MHz FM
STRAND 1 24 Oct 21:14:50 21:19:30 35° 295° (WNW) 21:24:08 ?
UOSAT-12 24 Oct 21:20:45 21:23:52 17° 23° (NNE) 21:26:58 437.025 FM, 437.400 FM
KITSAT 1 24 Oct 21:24:42 21:32:51 85° 54° (NE) 21:40:56 435.175 FM
FUNcube-1 24 Oct 21:27:49 21:31:20 22° 63° (ENE) 21:34:48 145.950 - 145.970 MHz USB
Oscar 11 24 Oct 21:29:26 21:33:33 44° 70° (ENE) 21:37:41 145.825 FM, Beacon 2401.500 USB
SO-50 24 Oct 21:36:12 21:41:03 74° 49° (NE) 21:45:56 436.795 FM
ZACube-1 24 Oct 22:18:03 22:22:34 63° 73° (ENE) 22:27:03 437.345 MHz
UKube-1 24 Oct 22:23:49 22:28:01 46° 260° (W) 22:32:15 145.840 MHz, 145.915 MHz
RS-15 24 Oct 22:50:06 23:00:47 62° 118° (ESE) 23:11:27 29.354 - 29.394 USB, Beacon 29.352 USB
HO-68 24 Oct 22:54:56 23:00:06 21° 271° (W) 23:05:18 435.675 MHz FM
UOSAT-12 24 Oct 23:00:22 23:05:03 54° 45° (NE) 23:09:38 437.025 FM, 437.400 FM
FUNcube-1 24 Oct 23:02:59 23:07:25 49° 261° (W) 23:11:49 145.950 - 145.970 MHz USB
Oscar 11 24 Oct 23:06:39 23:09:57 21° 268° (W) 23:13:17 145.825 FM, Beacon 2401.500 USB
SO-50 24 Oct 23:17:44 23:21:07 19° 248° (WSW) 23:24:32 436.795 FM
KITSAT 1 24 Oct 23:21:05 23:27:21 26° 255° (WSW) 23:33:36 435.175 FM
MaSat-1 24 Oct 23:53:04 23:56:34 28° 112° (ESE) 23:59:47 437.345 MHz
ZACube-1 24 Oct 23:56:25 23:59:22 17° 270° (W) 00:02:18 437.345 MHz
UOSAT-12 25 Oct 00:41:02 00:44:55 26° 245° (WSW) 00:48:46 437.025 FM, 437.400 FM
RS-15 25 Oct 01:02:49 01:13:27 54° 324° (NW) 01:24:14 29.354 - 29.394 USB, Beacon 29.352 USB
Oscar 10/S400 25 Oct 01:18:23 02:10:08 19° 238° (WSW) 04:13:00 145.825 - 145.975 CW/USB, Beacon 145.810 USB
MaSat-1 25 Oct 01:28:35 01:32:09 31° 307° (NW) 01:35:24 437.345 MHz
Oscar 19 25 Oct 01:54:18 01:58:22 23° 92° (E) 02:02:25 437.125 CW, 437.150 USB
AO-27 25 Oct 02:13:06 02:16:06 15° 88° (E) 02:19:05 436.795 MHz FM
AO-Echo 25 Oct 02:33:46 02:38:25 30° 94° (E) 02:43:03 ?
Oscar 16 25 Oct 02:39:30 02:44:34 57° 101° (E) 02:49:35 437.025 USB, Beacon 2401.1428
JAS-1B 25 Oct 02:41:51 02:48:15 54° 101° (E) 02:55:49 435.800 - 435.900 CW/SSB
Uribyol 2 25 Oct 02:59:26 03:04:19 39° 97° (E) 03:09:09 436.500 FM
ITAMSAT 1 25 Oct 03:05:28 03:10:25 41° 98° (E) 03:15:20 435.822 SSB
PCSat 25 Oct 03:08:33 03:11:13 14° 103° (ESE) 03:13:53 145.825 MHz
RS-15 25 Oct 03:19:07 03:28:49 34° 357° (N) 03:38:43 29.354 - 29.394 USB, Beacon 29.352 USB
Gurwin Techsat 1B 25 Oct 03:26:16 03:31:09 35° 96° (E) 03:36:00 435.225 FM
Oscar 19 25 Oct 03:33:03 03:38:02 54° 291° (WNW) 03:43:00 437.125 CW, 437.150 USB
OPAL 25 Oct 03:34:30 03:37:11 15° 51° (NE) 03:39:52 ?
TMSAT-1 25 Oct 03:37:26 03:42:14 34° 95° (E) 03:47:00 436.925 FM
AO-27 25 Oct 03:51:02 03:56:18 84° 287° (WNW) 04:01:32 436.795 MHz FM
AO-Echo 25 Oct 04:12:18 04:17:20 45° 292° (WNW) 04:22:22 ?
AO-7 25 Oct 04:18:11 04:24:38 24° 90° (E) 04:31:02 29.400 - 29.500 MHz
Oscar 16 25 Oct 04:19:32 04:23:34 24° 300° (WNW) 04:27:35 437.025 USB, Beacon 2401.1428
Uosat F 25 Oct 04:20:33 04:22:47 13° 87° (E) 04:25:00 435.120 FM
Sapphire 25 Oct 04:26:03 04:31:17 52° 117° (ESE) 04:36:33 437.095 MHz 1200 baud AX-25 AFSK
JAS-1B 25 Oct 04:33:04 04:38:45 35° 298° (WNW) 04:45:19 435.800 - 435.900 CW/SSB
Uribyol 2 25 Oct 04:39:04 04:43:45 34° 296° (WNW) 04:48:23 436.500 FM
ITAMSAT 1 25 Oct 04:45:12 04:49:49 33° 297° (WNW) 04:54:25 435.822 SSB
PCSat 25 Oct 04:48:21 04:53:46 81° 122° (ESE) 04:59:13 145.825 MHz
Gurwin Techsat 1B 25 Oct 05:06:16 05:11:09 38° 295° (WNW) 05:16:00 435.225 FM
OPAL 25 Oct 05:10:10 05:15:18 77° 70° (ENE) 05:20:23 ?
TMSAT-1 25 Oct 05:17:18 05:22:14 40° 294° (WNW) 05:27:08 436.925 FM
STRAND 1 25 Oct 05:19:18 05:21:52 14° 53° (NE) 05:24:26 ?
AO-27 25 Oct 05:32:04 05:35:03 16° 306° (NW) 05:38:01 436.795 MHz FM
